User: anonymous   Login
Location: Unspecified
(0.0000°N, 0.0000°E)
Time: 09:27:36
(UTC+00:00)
Language:

ORS OBJECT Z - Orbit

View from above orbital plane
View from above orbital plane
View from above satellite
View from above satellite

Ground track
Ground track

The orbit data is extracted from the following two-line orbital elements,

1 39403U 13064Z   17327.61052604 +.00008804 +00000-0 +15133-3 0  9993
2 39403 040.5225 156.1516 0004584 331.2569 028.7997 15.51103644222192
Epoch (UTC): 23 November 2017 14:39:09
Eccentricity: 0.0004584
inclination: 40.5225°
perigee height: 410 km
apogee height: 416 km
right ascension of ascending node: 156.1516°
argument of perigee: 331.2569°
revolutions per day: 15.51103644
mean anomaly at epoch: 28.7997°
orbit number at epoch: 22219

The dashed part of the orbit path shows where the satellite is in the earth's shadow,  

DLR